Regional Weather Roundup
Issued by NWS

Home | Current Version | Previous Version | Text Only | Print | Product List | Glossary On
Versions: 1 2 3 4 5 6 7 8 9 10 11 12 13 14 15 16 17 18 19 20 21 22 23 24 25 26 27 28 29 30 31 32 33 34 35 36 37 38 39 40 41 42 43 44 45 46 47 48 49 50
000
ASUS43 KTOP 231308
RWRKS

WEATHER ROUNDUP FOR KANSAS
NATIONAL WEATHER SERVICE GOODLAND KS
800 AM CDT SAT SEP 23 2017

NOTE:  "FAIR" INDICATES FEW OR NO CLOUDS BELOW 12,000 FEET WITH NO
SIGNIFICANT WEATHER AND/OR OBSTRUCTIONS TO VISIBILITY.

KSZ001>006-013>018-027>032-041>047-231400-
NORTHWEST KANSAS

CITY           SKY/WX    TMP DP  RH WIND       PRES   REMARKS
GOODLAND       PTCLDY    57  53  86 NW10      29.90R
HAYS           CLEAR     71  64  78 MISG      29.91R
HILL CITY      MOCLDY    73  66  78 VRB6      29.88R
RUSSELL        CLEAR     72  63  73 S16       29.90R
$$

KSZ061>065-074>080-084>089-231400-
SOUTHWEST KANSAS

CITY           SKY/WX    TMP DP  RH WIND       PRES   REMARKS
DODGE CITY     CLEAR     69  64  84 S14       29.92R
ELKHART          N/A     62  62 100 S15         N/A
GARDEN CITY    CLEAR     66  63  90 SE12      29.90S
GREAT BEND     PTCLDY    71  64  78 S13       29.93R
LIBERAL        CLEAR     67  64  90 S15       29.92R
PRATT          PTCLDY    69  62  76 S13G18    29.95R
$$

KSZ066>073-081>083-090>101-231400-
SOUTHEAST KANSAS

CITY           SKY/WX    TMP DP  RH WIND       PRES   REMARKS
CHANUTE        CLEAR     69  67  93 SE6       30.02R
COFFEYVILLE    CLEAR     68  66  93 CALM      30.00R
HUTCHINSON     CLEAR     70  66  87 S7        29.95R
MEDICINE LODGE   N/A     69  63  81 SE6       29.94R
NEWTON         CLEAR     68  64  87 SE9       29.98R
PARSONS        CLEAR     70  66  87 SE3       30.02R
WICHITA INTL   PTCLDY    70  66  87 SE7       29.96R
WICHITA JABRA  CLEAR     69  66  90 S5        29.97R
WICHITA MCCONL CLEAR     70  64  79 S7        29.97R
WINFIELD       CLEAR     70  66  87 SE7       29.99R
$$

KSZ007>012-019>026-033>040-048>060-102>105-231400-
NORTHEAST KANSAS

CITY           SKY/WX    TMP DP  RH WIND       PRES   REMARKS
CONCORDIA      CLEAR     71  66  84 S16G24    29.92R
EMPORIA        CLEAR     68  65  90 S8        29.99R
LAWRENCE       CLEAR     69  68  96 E5        30.00R
MANHATTAN      CLEAR     73  66  78 SW8       29.95R
MARYSVILLE     CLEAR     72  66  83 SE5       29.96R
OLATHE IND     CLEAR     70  67  90 S7        30.02R
OLATHE EXE     CLEAR     68  68 100 SE6       30.02R
SALINA         CLEAR     75  64  68 S14       29.94R
TOPEKA BILLARD CLEAR     69  68  96 E6        29.99R
TOPEKA FORBES  CLEAR     71  67  87 SE7       30.00R
$$




USA.gov is the U.S. government's official web portal to all federal, state and local government web resources and services.